Flag for Germany Weather past 2 weeks in Unna, North Rhine-Westphalia, Germany

Now
66 °F

Sunny.


Feels Like: 66 °F
Forecast: 46 / 57 °F
Wind: 7 mph from West

Location: Dortmund / Wickede

Current Time: May 24, 2015 at 7:28:56 PM

Latest Report: May 24, 2015 at 6:50 PM


Visibility: 10 mi

Pressure: 30.04 "Hg

Humidity: 32%

Dew point: 36 °F

Location of UnnaLocation

Historic Weather in Unna — Graph

°F

Unna temperature yesterday

Maximum temperature yesterday: 68 °F (at 12:50 PM)
Minimum temperature yesterday: 52 °F (at 10:20 PM)
Average temperature yesterday: 58 °F

Past Weeks' High & Low Weather Summary

 TemperatureHumidityPressure
High77 °F (May 11, 3:50 PM)93% (May 16, 6:20 AM)30.33 "Hg (May 16, 6:20 AM)
Low39 °F (May 14, 5:20 AM)29% (May 11, 2:50 PM)29.62 "Hg (May 18, 7:20 PM)
Average57 °F58%30.07 "Hg
* Reported May 9 6:20 PM — May 24 6:20 PM, Unna, Weather by CustomWeather, © 2015

Note: Actual official high and low records may vary slightly from our data, if they occured in-between our weather recording intervals... More about our weather records

Advertising

Unna weather history for previous 24 hours

 ConditionsComfort  
Time TempWeatherWind HumidityBarometerVisibility
6:20 PM
Sun, May 24
66 °FPassing clouds.7 mph37%30.04 "HgN/A
5:50 PM66 °FPassing clouds.6 mph43%30.04 "HgN/A
5:20 PM66 °FPassing clouds.7 mph40%30.04 "HgN/A
4:50 PM66 °FPassing clouds.8 mph40%30.04 "HgN/A
4:20 PM66 °FPassing clouds.8 mph43%30.07 "HgN/A
3:50 PM66 °FScattered clouds.10 mph46%30.07 "HgN/A
3:20 PM64 °FScattered clouds.6 mph52%30.07 "HgN/A
2:50 PM64 °FPartly sunny.7 mph52%30.07 "HgN/A
2:20 PM63 °FPartly sunny.6 mph49%30.09 "HgN/A
1:50 PM63 °FPartly sunny.2 mph49%30.09 "HgN/A
1:20 PM61 °FPartly sunny.6 mph52%30.09 "HgN/A
12:50 PM61 °FPartly sunny.3 mph55%30.09 "HgN/A
12:20 PM59 °FPartly sunny.3 mph55%30.09 "HgN/A
11:50 AM59 °FPartly sunny.5 mph55%30.12 "HgN/A
11:20 AM59 °FOvercast.3 mph59%30.12 "HgN/A
10:50 AM57 °FOvercast.3 mph59%30.12 "HgN/A
10:20 AM55 °FOvercast.5 mph67%30.12 "HgN/A
9:50 AM54 °FOvercast.3 mph67%30.12 "HgN/A
9:20 AM52 °FOvercast.3 mph67%30.12 "HgN/A
8:50 AM50 °FOvercast.3 mph71%30.12 "HgN/A
8:20 AM50 °FOvercast.3 mph71%30.12 "HgN/A
7:50 AM48 °FOvercast.3 mph76%30.12 "HgN/A
7:20 AM48 °FOvercast.3 mph71%30.12 "HgN/A
6:50 AM46 °FOvercast.3 mph76%30.12 "HgN/A
6:20 AM46 °FOvercast.3 mph76%30.12 "HgN/A
5:50 AM46 °FOvercast.5 mph76%30.12 "HgN/A
5:20 AM45 °FOvercast.5 mph81%30.15 "HgN/A
10:50 PM
Sat, May 23
52 °FPassing clouds.2 mph82%30.15 "HgN/A
10:20 PM52 °FScattered clouds.5 mph82%30.15 "HgN/A
9:50 PM54 °FPartly sunny.6 mph77%30.15 "HgN/A
9:20 PM54 °FScattered clouds.6 mph77%30.15 "HgN/A
8:50 PM54 °FPartly sunny.6 mph77%30.15 "HgN/A
8:20 PM54 °FPartly sunny.6 mph82%30.15 "HgN/A
7:50 PM54 °FPartly sunny.8 mph82%30.15 "HgN/A
7:20 PM55 °FPartly sunny.7 mph77%30.15 "HgN/A
Weather by CustomWeather, © 2015

See weather overviewHow to use our weather pages